This is the latest recevied weather packets stored in our database for station/object WX4BK-13. If no packets are shown the sender has not sent any weather packets the latest 1 day(s).
| Time | Temp. | Humidity | Pressure | Rain* | Wind** | Luminosity | Snow |
|---|---|---|---|---|---|---|---|
| 1836274739 | 17.78° C | 9% | - | 0 mm | 0 m/s | - | - |
| 1836274559 | 17.78° C | 9% | - | 0 mm | 0 m/s | - | - |
| 1836274529 | 17.22° C | 9% | - | 0 mm | 0 m/s | - | - |
| 1836274379 | 17.78° C | 9% | - | 0 mm | 0 m/s | - | - |
| 1836274199 | 17.78° C | 9% | - | 0 mm | 0 m/s | - | - |
| 1836274169 | 17.78° C | 9% | - | 0 mm | 0 m/s | - | - |
| 1778054246 | 17.78° C | 8% | - | 0 mm | 2.24 m/s, 209° | - | - |
| 1778054066 | 17.78° C | 8% | - | 0 mm | 2.68 m/s, 199° | - | - |
| 1778053706 | 17.78° C | 8% | - | 0 mm | 2.68 m/s, 198° | - | - |
| 1778053526 | 17.78° C | 8% | - | 0 mm | 2.24 m/s, 250° | - | - |
| 1778053346 | 17.78° C | 8% | - | 0 mm | 1.34 m/s, 196° | - | - |
| 1778053167 | 17.78° C | 8% | - | 0 mm | 1.34 m/s, 156° | - | - |
| 1778052987 | 17.78° C | 8% | - | 0 mm | 2.24 m/s, 194° | - | - |
| 1778052807 | 17.78° C | 8% | - | 0 mm | 2.24 m/s, 250° | - | - |
| 1778052627 | 17.78° C | 8% | - | 0 mm | 1.34 m/s, 201° | - | - |
| 1778052447 | 17.78° C | 8% | - | 0 mm | 1.34 m/s, 182° | - | - |
| 1778052267 | 17.78° C | 8% | - | 0 mm | 2.24 m/s, 199° | - | - |
| 1778052087 | 17.78° C | 8% | - | 0 mm | 1.34 m/s, 206° | - | - |
| 1778051727 | 17.78° C | 8% | - | 0 mm | 2.24 m/s, 221° | - | - |
| 1778051547 | 17.78° C | 8% | - | 0 mm | 0.45 m/s, 270° | - | - |
| 1778051367 | 17.78° C | 8% | - | 0 mm | 1.79 m/s, 233° | - | - |
| 1778051187 | 17.78° C | 8% | - | 0 mm | 1.79 m/s, 301° | - | - |
| 1778051007 | 17.78° C | 8% | - | 0 mm | 1.34 m/s, 266° | - | - |
| 1778050647 | 18.33° C | 8% | - | 0 mm | 1.34 m/s, 188° | - | - |
| 1778050467 | 18.33° C | 8% | - | 0 mm | 1.34 m/s, 191° | - | - |
* Rain latest hour (hover to see other rain measurements)
** Current wind speed in m/s (hover to see current wind gust speed)